[[{"header":{"parameterUnit":"m.s-1","parameterCategory":1,"la1":30.2991,"la2":30.254,"lo1":-89.0895,"lo2":-89.0444,"dy":0.0017,"dx":0.0017,"nx":28,"ny":28,"refTime":"2024-07-25T21:00:00:Z","depth":0,"parameterNumber":2,"parameterNumberName":"U-component_of_WINDS"},"data":[0,0,0,0,0,0,0,0,0,0,0,0,0,0,0,0,0,0,0,0,0,0,0,0,0,0,0,0,0,0,0,0,0,0,0,0,0,0,0,0,0,0,0,0,0,0,0,0,0,0,0,0,0,0,0,0,0,0,-0.1018,-0.1018,0,-0.1024,-0.1024,-0.1024,-0.1028,-0.1028,-0.1028,-0.1028,-0.1033,-0.1033,-0.1033,0,0,0,0,0,0,0,0,0,0,0,0,0,-0.1011,-0.1011,-0.1018,-0.1018,-0.1018,-0.1024,-0.1024,-0.1024,-0.1028,-0.1028,-0.1028,-0.1028,-0.1033,-0.1033,-0.1033,0,0,0,0,0,0,0,0,0,0,0,0,0,-0.1015,-0.1011,-0.1018,-0.1021,-0.1021,-0.1024,-0.1024,-0.1024,-0.1028,-0.1028,-0.1028,-0.1028,-0.1033,-0.1033,-0.1033,-0.1034,0,0,-0.1034,-0.1034,0,0,0,0,0,0,0,0,-0.1015,-0.1016,-0.102,-0.102,-0.1021,-0.1025,-0.1024,-0.1028,-0.1028,-0.1025,-0.1028,-0.1028,-0.103,-0.1031,-0.1032,-0.1035,-0.1035,-0.1034,-0.1034,-0.1034,-0.1034,0,0,0,0,0,0,0,-0.1015,-0.1015,-0.102,-0.102,-0.1021,-0.1022,-0.1023,-0.1025,-0.1027,-0.1025,-0.1025,-0.1026,-0.1031,-0.1032,-0.1032,-0.1035,-0.1034,-0.1034,-0.1034,-0.1034,-0.1043,-0.1043,0,0,0,0,0,0,-0.1014,-0.1015,-0.102,-0.1021,-0.1018,-0.1022,-0.1023,-0.1024,-0.1027,-0.1028,-0.1026,-0.1026,-0.1031,-0.1032,-0.1032,-0.1036,-0.1034,-0.1034,-0.1035,-0.1043,-0.1043,-0.1043,0,0,0,0,0,0,-0.1014,-0.1014,-0.102,-0.1018,-0.1019,-0.1022,-0.1023,-0.1024,-0.1025,-0.1028,-0.1029,-0.1027,-0.1031,-0.1032,-0.1035,-0.1036,-0.1035,-0.1035,-0.1043,-0.1043,-0.1043,-0.1041,0,0,0,0,0,0,-0.1014,-0.1014,-0.1014,-0.1018,-0.1019,-0.1021,-0.1023,-0.1024,-0.1025,-0.1026,-0.1029,-0.1029,-0.1031,-0.1034,-0.1035,-0.1036,-0.1035,-0.1043,-0.1043,-0.1043,-0.1041,-0.1041,-0.1041,0,0,0,0,0,-0.1013,-0.1012,-0.1014,-0.1014,-0.1018,-0.1021,-0.1022,-0.1024,-0.1025,-0.1026,-0.1029,-0.1029,-0.1036,-0.1035,-0.1035,-0.1036,-0.1042,-0.1043,-0.1043,-0.1041,-0.1041,-0.1041,0,0,0,0,0,0,-0.1006,-0.1012,-0.1014,-0.1014,-0.1018,-0.1022,-0.1022,-0.1024,-0.1027,-0.1027,-0.103,-0.1031,-0.1034,-0.1036,-0.1034,-0.104,-0.104,-0.104,-0.1038,-0.1038,-0.1038,-0.1037,-0.1035,0,0,0,0,0,-0.1005,-0.1007,-0.1012,-0.1012,-0.1013,-0.1018,-0.1019,-0.1021,-0.1024,-0.1026,-0.1028,-0.1032,-0.1035,-0.1037,-0.104,-0.1042,-0.1044,-0.1044,-0.1044,-0.1044,-0.1044,-0.1048,-0.1048,-0.1044,-0.1044,-0.1044,0,0,-0.1001,-0.1005,-0.1006,-0.101,-0.1013,-0.1016,-0.1018,-0.102,-0.1023,-0.1026,-0.1029,-0.1032,-0.1036,-0.1039,-0.1041,-0.1041,-0.1046,-0.1044,-0.1044,-0.1044,-0.1048,-0.1049,-0.1049,-0.1044,-0.1044,-0.1044,0,0,-0.0997,-0.0999,-0.1,-0.1004,-0.1009,-0.1013,-0.1013,-0.1018,-0.1021,-0.1024,-0.1028,-0.1032,-0.1036,-0.104,-0.1042,-0.1045,-0.1046,-0.1046,-0.1046,-0.105,-0.105,-0.105,-0.1052,-0.1053,-0.1046,-0.1046,-0.1046,0,-0.0992,-0.0995,-0.1,-0.1003,-0.1006,-0.1011,-0.1013,-0.1017,-0.1022,-0.1025,-0.1025,-0.1034,-0.1037,-0.1042,-0.1043,-0.1045,-0.1047,-0.1044,-0.105,-0.105,-0.105,-0.1053,-0.1053,-0.1046,-0.1046,-0.1046,-0.1046,0,-0.099,-0.0993,-0.0994,-0.1,-0.1004,-0.1006,-0.1012,-0.1015,-0.1019,-0.1023,-0.1028,-0.1033,-0.1038,-0.104,-0.1043,-0.1048,-0.1048,-0.1049,-0.1049,-0.1051,-0.1053,-0.1054,-0.1046,-0.1046,-0.1046,-0.1046,0,0,-0.0977,-0.099,-0.099,-0.0995,-0.1003,-0.1006,-0.101,-0.1016,-0.1019,-0.1024,-0.1029,-0.1035,-0.1038,-0.1041,-0.1044,-0.1048,-0.1052,-0.1049,-0.105,-0.105,-0.106,-0.1058,-0.1059,-0.1054,-0.1054,-0.1054,-0.106,0,-0.0974,-0.0981,-0.0988,-0.0993,-0.0997,-0.1004,-0.1008,-0.1015,-0.102,-0.1025,-0.1031,-0.1036,-0.1038,-0.104,-0.1045,-0.105,-0.1054,-0.105,-0.1059,-0.1059,-0.1057,-0.106,-0.1057,-0.1062,-0.1061,-0.1061,-0.1061,0,-0.0969,-0.0976,-0.0982,-0.0993,-0.0995,-0.0998,-0.1007,-0.1011,-0.102,-0.1024,-0.103,-0.1034,-0.1041,-0.1042,-0.1052,-0.105,-0.1055,-0.1059,-0.1059,-0.1059,-0.1059,-0.106,-0.1063,-0.1064,-0.1062,-0.1062,-0.1062,0,-0.096,-0.0971,-0.0976,-0.098,-0.0993,-0.0996,-0.1001,-0.101,-0.1015,-0.1022,-0.1026,-0.1034,-0.1039,-0.1046,-0.1054,-0.1054,-0.1064,-0.1065,-0.1068,-0.1068,-0.1068,-0.1068,-0.1072,-0.1072,-0.1072,-0.1072,-0.1072,0,-0.0955,-0.0958,-0.0973,-0.0976,-0.0981,-0.0991,-0.0996,-0.1002,-0.1011,-0.1017,-0.1024,-0.103,-0.104,-0.1047,-0.1054,-0.1063,-0.1064,-0.1068,-0.107,-0.1067,-0.1067,-0.1069,-0.1069,-0.1072,-0.1072,-0.1072,-0.1072,0,-0.0945,-0.0954,-0.0961,-0.0974,-0.0978,-0.0981,-0.0993,-0.0998,-0.1005,-0.1013,-0.1015,-0.1027,-0.1036,-0.1046,-0.1058,-0.1063,-0.1071,-0.1073,-0.1068,-0.1069,-0.1072,-0.1071,-0.1077,-0.1079,-0.1078,-0.1078,-0.1078,0,-0.094,-0.0943,-0.0958,-0.0963,-0.0969,-0.0976,-0.0982,-0.0993,-0.0999,-0.1011,-0.1015,-0.1025,-0.1034,-0.1049,-0.1059,-0.107,-0.1072,-0.1074,-0.1073,-0.1072,-0.1073,-0.1072,-0.1073,-0.1073,-0.1073,-0.1073,-0.1073,0,-0.0931,-0.0937,-0.0945,-0.0956,-0.0963,-0.0972,-0.0981,-0.0985,-0.0998,-0.1004,-0.1015,-0.1022,-0.1036,-0.1047,-0.106,-0.1067,-0.1072,-0.1073,-0.1075,-0.1071,-0.1068,-0.1071,-0.1068,-0.1072,-0.1072,-0.1072,-0.1072,-0.1072,-0.0924,-0.0928,-0.094,-0.095,-0.0959,-0.0968,-0.0974,-0.0984,-0.0992,-0.1005,-0.1012,-0.1023,-0.1035,-0.1053,-0.1061,-0.107,-0.1072,-0.1073,-0.1074,-0.1074,-0.1074,-0.1068,-0.1073,-0.1073,-0.1073,-0.1073,-0.1073,0,-0.0916,-0.0925,-0.0934,-0.0948,-0.0956,-0.0963,-0.0975,-0.0981,-0.0991,-0.1002,-0.1012,-0.1026,-0.1038,-0.105,-0.1063,-0.1069,-0.1072,-0.1072,-0.1071,-0.1073,-0.1071,-0.1069,-0.107,-0.107,-0.107,-0.107,-0.107,-0.107,-0.0913,-0.0921,-0.0929,-0.0943,-0.0953,-0.0964,-0.097,-0.098,-0.0989,-0.1005,-0.1015,-0.1024,-0.1037,-0.1052,-0.1064,-0.1067,-0.1072,-0.1071,-0.1075,-0.1073,-0.1073,-0.1073,-0.1071,-0.1072,-0.1072,-0.1077,-0.1077,-0.1077]},{"header":{"parameterUnit":"m.s-1","parameterCategory":1,"la1":30.2991,"la2":30.254,"lo1":-89.0895,"lo2":-89.0444,"dy":0.0017,"dx":0.0017,"nx":28,"ny":28,"refTime":"2024-07-25T21:00:00:Z","depth":0,"parameterNumber":3,"parameterNumberName":"V-component_of_WINDS"},"data":[0,0,0,0,0,0,0,0,0,0,0,0,0,0,0,0,0,0,0,0,0,0,0,0,0,0,0,0,0,0,0,0,0,0,0,0,0,0,0,0,0,0,0,0,0,0,0,0,0,0,0,0,0,0,0,0,0,0,2.6253,2.6251,0,2.6105,2.6103,2.6101,2.6027,2.6027,2.6027,2.6027,2.5876,2.5872,2.5869,0,0,0,0,0,0,0,0,0,0,0,0,0,2.6471,2.6467,2.6253,2.6251,2.6249,2.6105,2.6103,2.6101,2.6027,2.6027,2.6027,2.6027,2.5878,2.5873,2.5868,0,0,0,0,0,0,0,0,0,0,0,0,0,2.6355,2.6466,2.6253,2.6195,2.6188,2.6105,2.6103,2.61,2.6027,2.6027,2.6027,2.6027,2.5879,2.5873,2.5867,2.5832,0,0,2.5849,2.5847,0,0,0,0,0,0,0,0,2.6362,2.6347,2.6205,2.6199,2.6191,2.6084,2.6124,2.601,2.6027,2.6088,2.6027,2.6027,2.5946,2.5934,2.5907,2.5824,2.5818,2.5849,2.5845,2.5842,2.5841,0,0,0,0,0,0,0,2.637,2.6353,2.6194,2.6203,2.6195,2.6176,2.616,2.6103,2.6019,2.6083,2.6077,2.6061,2.5942,2.5913,2.5902,2.5816,2.5849,2.5844,2.584,2.5838,2.5695,2.5695,0,0,0,0,0,0,2.6387,2.636,2.6199,2.619,2.6278,2.6172,2.6154,2.6119,2.602,2.6004,2.6061,2.6058,2.5923,2.591,2.5897,2.5847,2.5843,2.5837,2.5834,2.5695,2.5695,2.5695,0,0,0,0,0,0,2.6392,2.6374,2.6205,2.6273,2.625,2.6168,2.613,2.6116,2.6086,2.6003,2.5988,2.6046,2.5922,2.5905,2.5848,2.5841,2.5834,2.5829,2.5696,2.5695,2.5695,2.5748,0,0,0,0,0,0,2.6399,2.6376,2.6361,2.6274,2.6247,2.6159,2.6129,2.6113,2.6076,2.6071,2.5985,2.5971,2.5921,2.5857,2.5842,2.5832,2.5824,2.5696,2.5696,2.5695,2.5746,2.5749,2.5752,0,0,0,0,0,2.6407,2.6383,2.6361,2.6342,2.6227,2.6158,2.6143,2.6086,2.6076,2.6061,2.6007,2.5974,2.5844,2.5852,2.5834,2.5823,2.5696,2.5696,2.5695,2.5745,2.5749,2.5752,0,0,0,0,0,0,2.6472,2.637,2.6345,2.6292,2.6234,2.6146,2.6125,2.6092,2.6036,2.6033,2.5965,2.5946,2.5895,2.5853,2.5864,2.5782,2.5767,2.5763,2.5811,2.5814,2.5817,2.5827,2.5819,0,0,0,0,0,2.648,2.6433,2.6346,2.6307,2.628,2.6207,2.6175,2.6136,2.6074,2.6049,2.5991,2.5932,2.5878,2.5844,2.5789,2.574,2.572,2.5724,2.5727,2.5729,2.5726,2.5696,2.5696,2.5694,2.5694,2.5694,0,0,2.6496,2.6435,2.6409,2.6319,2.627,2.6221,2.6187,2.6138,2.6102,2.6042,2.5983,2.5939,2.5869,2.5815,2.5788,2.5779,2.5723,2.5729,2.5732,2.5727,2.5696,2.5696,2.5696,2.5693,2.5693,2.5693,0,0,2.6501,2.645,2.6412,2.6363,2.6289,2.6241,2.6232,2.6148,2.6116,2.6057,2.601,2.5966,2.5875,2.5826,2.5789,2.5775,2.5742,2.576,2.5774,2.5745,2.5745,2.5745,2.5739,2.5738,2.5757,2.5757,2.5757,0,2.6531,2.6456,2.6396,2.6349,2.631,2.6253,2.6213,2.6169,2.6082,2.6056,2.6046,2.5929,2.5878,2.5812,2.5808,2.5781,2.5768,2.5768,2.575,2.5749,2.5748,2.5742,2.574,2.576,2.5759,2.5759,2.5759,0,2.6495,2.6445,2.6423,2.6338,2.6297,2.6254,2.6187,2.6153,2.6117,2.6071,2.601,2.5947,2.5878,2.586,2.5825,2.5788,2.5784,2.5763,2.5746,2.5752,2.5745,2.5742,2.5763,2.5762,2.5762,2.5761,0,0,2.6536,2.6419,2.6412,2.6373,2.6287,2.6246,2.6201,2.6133,2.6104,2.6046,2.6005,2.5929,2.5909,2.5867,2.5826,2.5802,2.5793,2.5783,2.5781,2.5786,2.5747,2.5763,2.5761,2.5771,2.577,2.577,2.5753,0,2.6528,2.6443,2.6387,2.6324,2.6276,2.6221,2.6181,2.6124,2.6079,2.6031,2.5982,2.5928,2.5906,2.5881,2.5854,2.58,2.5784,2.5801,2.5732,2.573,2.575,2.5757,2.5773,2.576,2.575,2.5749,2.5749,0,2.6507,2.6449,2.6381,2.6299,2.6277,2.6242,2.6175,2.6131,2.6064,2.6033,2.5987,2.5945,2.5894,2.5883,2.5811,2.5824,2.5793,2.5762,2.576,2.5751,2.5739,2.5746,2.5754,2.5752,2.5744,2.5744,2.5744,0,2.6542,2.6447,2.6394,2.6362,2.6266,2.6242,2.6201,2.6135,2.6098,2.604,2.6015,2.5952,2.5917,2.5869,2.5811,2.5809,2.5745,2.5729,2.5717,2.5719,2.5706,2.5707,2.5708,2.5688,2.5688,2.5688,2.5688,0,2.6537,2.6498,2.6408,2.6375,2.6329,2.6265,2.6221,2.6176,2.6117,2.6074,2.6024,2.5985,2.5911,2.5863,2.5818,2.5765,2.575,2.5723,2.5711,2.5727,2.573,2.5705,2.5704,2.5687,2.5688,2.5688,2.5688,0,2.6568,2.6507,2.6445,2.6359,2.6336,2.6306,2.6232,2.6198,2.615,2.6096,2.608,2.6005,2.5946,2.5884,2.5804,2.5773,2.5722,2.5706,2.5744,2.5737,2.5728,2.573,2.5712,2.5705,2.5692,2.5692,2.5692,0,2.6569,2.6537,2.6447,2.6414,2.6374,2.6323,2.6284,2.6221,2.6183,2.6105,2.608,2.6017,2.5963,2.587,2.5809,2.5747,2.5729,2.5727,2.5719,2.5736,2.5727,2.5729,2.5725,2.5729,2.573,2.573,2.573,0,2.6576,2.6547,2.6493,2.6429,2.6384,2.633,2.6275,2.6251,2.6177,2.6136,2.6075,2.6033,2.5951,2.5888,2.5819,2.5777,2.5741,2.5733,2.5727,2.5742,2.5765,2.5751,2.575,2.5734,2.5733,2.5733,2.5733,2.5733,2.659,2.6559,2.6491,2.6432,2.6384,2.6333,2.6296,2.6244,2.6191,2.6119,2.6085,2.6023,2.5957,2.5861,2.5819,2.577,2.5759,2.5751,2.5748,2.5747,2.575,2.5774,2.5757,2.5757,2.5757,2.5757,2.5756,0,2.6593,2.6547,2.6494,2.6417,2.6372,2.6342,2.6279,2.6242,2.6189,2.613,2.6078,2.6007,2.5946,2.588,2.5815,2.5789,2.5771,2.5774,2.5774,2.5765,2.5764,2.5775,2.5789,2.5789,2.5789,2.5789,2.5789,2.5789,2.659,2.6534,2.6498,2.6418,2.6371,2.631,2.6277,2.6229,2.6182,2.6105,2.6054,2.6011,2.595,2.588,2.5823,2.5805,2.5783,2.5791,2.5768,2.5768,2.5765,2.5763,2.5773,2.5787,2.5787,2.5773,2.5773,2.5773]}]]